Location: Newark
(23.1300°N, 73.6109°E)
Time: 17:21:41
(UTC+00:00)

AO-7 - Pass Details

Date: 12 July 2020
Orbit: 1440 x 1458 km, 101.8° (Epoch: 05 August)

Event Time Altitude Azimuth Distance (km) Brightness Sun altitude
Rises 20:56:44 0° 49° (NE) 4,562 ? -38.3°
Reaches altitude 10° 21:02:52 10° 84° (E) 3,578 ? -37.5°
Maximum altitude 21:04:44 11° 97° (E) 3,511 ? -37.3°
Drops below altitude 10° 21:06:35 10° 110° (ESE) 3,574 ? -37.0°
Enters shadow 21:10:45 - 135° (SE) 4,148 ? -36.5°
